User: anonymous   Login
Location: Unspecified
(0.0000°N, 0.0000°E)
Time: 08:43:46
(UTC+00:00)
Language:

UME 2 Rocket - Orbit

View from above orbital plane
View from above orbital plane
View from above satellite
View from above satellite

Ground track
Ground track

The orbit data is extracted from the following two-line orbital elements,

1 10674U 78018A   18267.93664382 -.00000054 +00000-0 -49745-5 0  9992
2 10674 069.3625 181.5762 0166847 291.4369 137.0958 13.43608782991562
Epoch (UTC): 24 September 2018 22:28:46
Eccentricity: 0.0166847
inclination: 69.3625°
perigee height: 971 km
apogee height: 1220 km
right ascension of ascending node: 181.5762°
argument of perigee: 291.4369°
revolutions per day: 13.43608782
mean anomaly at epoch: 137.0958°
orbit number at epoch: 99156

The dashed part of the orbit path shows where the satellite is in the earth's shadow,  

DLR